www.pogodaiklimat.ru

Погода и климат >> Архив погоды >> Норвегия >> Utsira Fyr


ПОГОДА в Utsira Fyr

  • Прогноз погоды в Utsira Fyr
  • Монитор погоды в Utsira Fyr
  • Климат города

АРХИВ ПОГОДЫ в Utsira Fyr

Время (UTC), дата Ветер
(напр.,м/с)
 
Видим.   Явления Облачность Т
(С)
Тd
(С)
f
(%)
Тe
(С)
Тes
(С)
Комфортность P
(гПа)
Po
(гПа)
Тmin
(С)
Tmax
(С)
R
(мм)
R24
(мм)
S
(см)
04 8.08 ЮВ 5 н/о н/о +17.6 +13.9 79 +17 +17 1003.6 997.0
05 8.08 ЮВ 5
{7}
н/о н/о +17.9 +14.0 78 +17 +17 1003.1 996.5
06 8.08 ЮВ 7
{11}
20 км 10/10 600 м
[St]
+18.1 +14.4 79 +18 +18 1003.1 996.5 +17.5 +18.3
07 8.08 Ю 11
{15}
н/о н/о +18.3 +15.7 85 +18 +18 1003.4 996.8
08 8.08 Ю 9
{14}
н/о н/о +18.8 +16.0 84 +19 +19 1003.5 996.9
09 8.08 Ю 7
{13}
30 км 8/6 600 м
[Cu med, cong Cc]
+18.5 +15.9 85 +19 +19 1003.7 997.1
10 8.08 Ю 9
{12}
н/о н/о +19.3 +16.3 83 +20 +20 1003.5 997.0
11 8.08 Ю 9
{13}
н/о н/о +18.2 +15.8 86 +17 +17 1004.0 997.4
12 8.08 Ю 9
{15}
15 км 10/10 300 м
[St]
+18.1 +15.9 87 +17 +17 1003.9 997.3
13 8.08 Ю 10
{13}
н/о н/о +17.8 +16.0 89 +17 +17 1003.9 997.3
14 8.08
{13}
н/о н/о +15.8 +14.2 90 1004.5 997.9 1
15 8.08
{8}
4000 м дождь 10/9 300 м
[Frnb As op]
+15.4 +13.8 90 1004.6 998.0 0.4
16 8.08 З 5
{9}
н/о н/о +15.1 +12.8 86 +14 +14 1004.9 998.2
17 8.08 З 5
{8}
н/о н/о +14.7 +13.1 90 +13 +13 1005.4 998.7 0.2
18 8.08 З 6
{13}
30 км в посл. час гроза {дождь} 10/8 600 м
[Sc Ac As Cs]
+15.2 +11.4 78 +14 +14 1005.9 999.2 +14.5 +19.4
19 8.08 З 8
{10}
н/о н/о +15.5 +11.1 75 +14 +14 1007.1 1000.4
20 8.08 З 7
{9}
н/о н/о +15.2 +10.2 72 +13 +13 1008.2 1001.5
21 8.08 З 6
{8}
30 км 4/4 600 м
[Cu med, cong Ci fib]
+15.2 +10.6 74 +14 +14 1008.9 1002.2
22 8.08 З 6
{8}
н/о н/о +15.1 +10.9 76 +13 +13 1009.4 1002.7
23 8.08 З 5
{7}
н/о н/о +15.0 +10.6 75 +14 +14 1009.6 1002.9
00 9.08 ЮЗ 5
{10}
н/о н/о +14.9 +11.1 78 +13 +13 1010.0 1003.3
01 9.08 ЮЗ 5
{7}
н/о н/о +14.8 +10.4 75 +13 +13 1010.1 1003.4
02 9.08 Ю 5
{7}
н/о н/о +15.1 +11.1 77 +14 +14 1010.2 1003.5
03 9.08 Ю 6
{8}
н/о н/о +15.6 +11.4 76 +14 +14 1010.3 1003.6
04 9.08
{11}
н/о н/о +15.7 +11.7 77 1010.4 1003.7 0.5
05 9.08 ЮЗ 8
{12}
н/о н/о +15.8 +13.1 84 +14 +14 1010.4 1003.7 0.3
06 9.08 ЮЗ 8
{12}
20 км {ливн. осадки} 6/4 600 м
[Cu Sc Ac As Ci sp]
+15.7 +12.1 79 +14 +14 1010.8 1004.1 +14.7 +16.0
07 9.08 ЮЗ 8
{10}
н/о н/о +16.4 +12.4 77 +15 +15 1011.4 1004.7
08 9.08 ЮЗ 8
{10}
н/о н/о +16.9 +11.8 72 +16 +16 1012.1 1005.4
09 9.08 ЮЗ 7
{10}
40 км 8/1 600 м
[Cu med, cong Ac trans Cs]
+17.0 +12.5 75 +16 +17 1012.7 1006.0
10 9.08 ЮЗ 7 н/о н/о +17.4 +12.3 72 +16 +16 1012.9 1006.2
11 9.08 ЮЗ 7
{10}
н/о н/о +17.6 +11.4 67 +17 +17 1013.1 1006.5
12 9.08 ЮЗ 7
{10}
30 км 10/1 600 м
[Cu hum Ac As]
+17.0 +11.5 70 +16 +17 1013.6 1006.9
13 9.08 ЮЗ 6
{8}
н/о н/о +17.0 +11.7 71 +16 +16 1013.5 1006.8
14 9.08 ЮЗ 5
{7}
н/о н/о +17.0 +11.7 71 +16 +16 1013.7 1007.0
15 9.08 ЮЗ 4
{6}
30 км 9/3 600 м
[Sc As trans]
+16.6 +10.7 68 +16 +18 1013.8 1007.1
16 9.08 ЮЗ 3
{5}
н/о н/о +16.3 +10.8 70 +16 +16 1013.6 1006.9
17 9.08 ЮЗ 2
{4}
н/о н/о +16.3 +11.0 71 +16 +16 1013.4 1006.7
18 9.08
{8}
20 км слабый ливневой дождь 10/8 600 м
[Cb cap Cs]
+15.4 +12.2 81 1012.9 1006.2 +15.4 +18.1
19 9.08 ЮВ 4
{6}
н/о н/о +15.0 +12.1 83 +14 +14 1012.6 1005.9 0.5
20 9.08 ЮВ 4
{6}
н/о н/о +14.6 +12.5 87 +13 +13 1012.2 1005.5
21 9.08
{6}
20 км {ливн. осадки} 10/5 300 м
[Sc Ac As]
+14.0 +11.7 86 1012.6 1005.9
22 9.08
{6}
н/о н/о +13.8 +11.7 87 1011.7 1005.0
23 9.08
{5}
н/о н/о +13.7 +11.8 88 1010.3 1003.6
00 10.08
{7}
н/о н/о +14.1 +12.2 88 1009.7 1003.0
01 10.08
{7}
н/о н/о +13.8 +11.9 88 1009.3 1002.6
02 10.08
{9}
н/о н/о +13.7 +11.8 88 1007.8 1001.1
03 10.08
{12}
н/о н/о +14.0 +11.9 87 1006.7 1000.0
04 10.08 н/о н/о +13.6 +11.5 87 1006.1 999.4 1
05 10.08
{16}
н/о н/о +13.5 +11.9 90 1005.7 999.0 4
06 10.08
{17}
6000 м слабый дождь 10/5 300 м
[Frnb As op]
+13.6 +10.8 83 1005.0 998.3 +13.2 +15.4
07 10.08
{16}
н/о н/о +13.9 +11.8 87 1004.7 998.0 0.1
08 10.08
{18}
н/о н/о +13.5 +11.6 88 1004.7 998.0 2
09 10.08
{18}
15 км в посл. час дождь 10/4 300 м
[Sc As op]
+14.2 +10.6 79 1004.7 998.0
10 10.08
{18}
н/о н/о +14.3 +9.7 74 1005.4 998.7
11 10.08
{16}
н/о н/о +14.4 +9.4 72 1006.1 999.4
12 10.08
{18}
н/о н/о +14.4 +9.4 72 1007.3 1000.6
13 10.08 СЗ 12
{16}
н/о н/о +14.7 +9.5 71 +12 +12 1008.4 1001.7
14 10.08 СЗ 11
{15}
н/о н/о +14.8 +10.4 75 +12 +12 1009.1 1002.4
15 10.08 СЗ 11
{14}
25 км 10/5 600 м
[Cu med, cong As trans]
+14.9 +9.9 72 +12 +12 1010.0 1003.3
16 10.08 З 11
{14}
н/о н/о +14.9 +9.5 70 +12 +12 1010.7 1004.0
17 10.08 СЗ 8
{13}
н/о н/о +14.8 +9.6 71 +13 +13 1011.3 1004.6
18 10.08
{16}
н/о н/о +14.4 +9.6 73 1011.9 1005.2 +13.2 +15.1
19 10.08
{13}
н/о н/о +14.1 +9.3 73 1012.6 1005.9
20 10.08
{12}
н/о н/о +13.9 +9.2 73 1013.0 1006.3
21 10.08
{11}
25 км 5/5 600 м
[Cu med, cong Ci fib]
+14.0 +9.7 75 1013.5 1006.8
22 10.08
{11}
н/о н/о +13.6 +9.7 77 1013.8 1007.1
23 10.08
{8}
н/о н/о +13.5 +9.0 74 1014.2 1007.4
00 11.08
{13}
н/о н/о +13.7 +9.0 73 1014.3 1007.6
01 11.08
{9}
н/о н/о +13.4 +8.3 71 1014.5 1007.7
02 11.08
{8}
н/о н/о +13.1 +8.2 72 1014.9 1008.1
03 11.08
{7}
н/о н/о +12.8 +7.3 69 1014.9 1008.1
04 11.08
{7}
н/о н/о +12.7 +6.5 66 1014.8 1008.0
05 11.08 С 3
{6}
н/о н/о +12.9 +6.3 64 +12 +12 1015.0 1008.2
06 11.08 СЗ 4
{9}
40 км 8/4 600 м
[Cu med, cong Ci sp]
+13.7 +7.0 64 +12 +13 1015.1 1008.3 +12.6 +14.5
07 11.08 С 5
{6}
н/о н/о +14.5 +8.0 65 +13 +13 1015.1 1008.4
08 11.08 С 4
{6}
н/о н/о +15.3 +7.8 61 +14 +14 1015.2 1008.5
09 11.08 СЗ 5
{8}
40 км 6/5 600 м
[Cu med, cong Ci sp]
+14.6 +7.9 64 +13 +15 1015.4 1008.7
10 11.08 СЗ 5
{8}
н/о н/о +15.9 +8.6 62 +15 +15 1015.5 1008.8
11 11.08 СЗ 6
{8}
н/о н/о +15.8 +9.3 65 +14 +14 1015.5 1008.8
12 11.08 СЗ 6
{8}
55 км 5/3 600 м
[Cu med, cong Ci sp]
+16.2 +9.4 64 +15 +18 1015.6 1008.9
13 11.08 СЗ 7
{9}
н/о н/о +15.7 +8.2 61 +14 +14 1015.7 1009.0
14 11.08 СЗ 6
{9}
н/о н/о +15.6 +7.9 60 +14 +14 1015.7 1009.0
15 11.08 СЗ 7
{9}
55 км 5/3 600 м
[Sc diur, vesp Ac trans Ci sp]
+15.3 +7.6 60 +14 +15 1015.6 1008.9
16 11.08
{11}
н/о н/о +14.6 +9.0 69 1015.5 1008.8
17 11.08 СЗ 6
{10}
н/о н/о +14.6 +8.1 65 +13 +13 1015.3 1008.6
18 11.08 СЗ 5
{11}
55 км 4/1 600 м
[Cu med, cong Ac cast Cc]
+14.2 +7.3 63 +13 +13 1015.1 1008.4 +13.7 +16.3
19 11.08
{7}
н/о н/о +13.8 +7.6 66 1015.1 1008.4
20 11.08
{7}
н/о н/о +13.3 +7.3 67 1015.2 1008.4
21 11.08
{7}
40 км 4/4 600 м
[Cb cap Ci fib]
+13.2 +7.4 68 1014.9 1008.1
22 11.08
{6}
н/о н/о +13.1 +7.8 70 1014.5 1007.7
23 11.08
{6}
н/о н/о +12.9 +7.4 69 1014.3 1007.5
00 12.08
{9}
н/о н/о +12.5 +8.2 75 1014.0 1007.2
01 12.08
{7}
н/о н/о +12.6 +7.9 73 1013.6 1006.8
02 12.08
{7}
н/о н/о +12.7 +8.0 73 1013.4 1006.6
03 12.08
{9}
н/о н/о +12.5 +7.6 72 1013.1 1006.3
04 12.08 н/о н/о +12.1 +8.6 79 1012.9 1006.1
05 12.08
{7}
н/о н/о +12.1 +7.6 74 1012.9 1006.1
06 12.08
{9}
40 км {ливн. осадки} 4/4 600 м
[Cu med, cong]
+12.6 +7.5 71 1013.0 1006.2 +11.8 +14.2
07 12.08 С 2
{6}
н/о н/о +13.3 +7.3 67 +13 +13 1012.7 1006.0
08 12.08
{4}
н/о н/о +14.5 +7.6 63 1012.7 1006.0
09 12.08 С 4
{6}
55 км 4/4 600 м
[Cu med, cong Cs]
+14.8 +7.4 61 +14 +17 1012.7 1006.0
10 12.08 С 3
{5}
н/о н/о +15.1 +8.6 65 +14 +14 1012.7 1006.0
11 12.08
{7}
н/о н/о +15.1 +7.7 61 1012.7 1006.0
12 12.08 С 5
{7}
55 км 1/1 1000 м
[Cu hum Ci fib]
+15.3 +7.6 60 +14 +19 1012.6 1005.9
13 12.08 С 5
{7}
н/о н/о +15.2 +7.5 60 +14 +14 1012.3 1005.6
14 12.08 С 6
{7}
н/о н/о +15.5 +8.0 61 +14 +14 1011.9 1005.2
15 12.08 С 6
{8}
55 км 1/0
[]
+15.3 +7.8 61 +14 +16 1011.9 1005.2
16 12.08
{9}
н/о н/о +15.0 +7.6 61 1011.5 1004.8
17 12.08
{9}
н/о н/о +14.6 +7.7 63 1011.2 1004.5
18 12.08
{9}
55 км 1/0
[]
+14.4 +8.4 67 1011.0 1004.3 +12.2 +15.7
19 12.08 С 7
{9}
н/о н/о +14.3 +8.5 68 +12 +12 1010.8 1004.1
20 12.08
{9}
н/о н/о +14.3 +8.9 70 1010.6 1003.9
21 12.08
{10}
40 км 1/0
[]
+14.3 +9.1 71 1010.5 1003.8
22 12.08
{10}
н/о н/о +14.3 +9.1 71 1010.5 1003.8
23 12.08 СВ 6
{9}
н/о н/о +14.0 +9.3 73 +12 +12 1010.2 1003.5
00 13.08
{10}
н/о н/о +13.9 +9.9 77 1009.9 1003.2
01 13.08
{8}
н/о н/о +13.5 +10.1 80 1009.8 1003.1
02 13.08
{5}
н/о н/о +12.6 +9.3 80 1009.7 1003.0
03 13.08
{5}
н/о н/о +12.8 +9.8 82 1009.5 1002.8
04 13.08
{4}
н/о н/о +12.2 +9.2 82 1009.6 1002.8
05 13.08 ЮВ 3
{4}
н/о н/о +12.7 +10.1 84 +11 +11 1009.5 1002.8
06 13.08 ЮВ 3
{8}
55 км 4/0
[]
+13.6 +10.8 83 +12 +13 1009.7 1003.0 +12.2 +14.5
07 13.08 В 3
{4}
н/о н/о +14.5 +10.7 78 +14 +14 1009.9 1003.2
08 13.08 Ю 4
{5}
н/о н/о +15.8 +11.4 75 +15 +15 1010.1 1003.4
09 13.08 Ю 4
{6}
55 км 5/1 1500 м
[Cu hum Ci sp]
+16.1 +10.2 68 +15 +20 1010.2 1003.5
10 13.08 Ю 4
{6}
н/о н/о +16.6 +10.0 65 +16 +16 1010.2 1003.5
11 13.08 ЮЗ 4
{6}
н/о н/о +17.0 +9.9 63 +17 +17 1010.0 1003.4
12 13.08 ЮЗ 4
{6}
55 км 6/0
[]
+17.1 +10.3 64 +17 +22 1010.1 1003.5
13 13.08 З 4
{5}
н/о н/о +17.2 +10.8 66 +17 +17 1009.9 1003.3
14 13.08 З 4
{6}
н/о н/о +17.0 +10.6 66 +17 +17 1009.6 1003.0
15 13.08 СЗ 4
{6}
55 км 5/0
[]
+17.3 +10.0 62 +17 +20 1009.3 1002.7
16 13.08 С 4
{6}
н/о н/о +17.2 +9.9 62 +17 +17 1009.1 1002.5
17 13.08 С 5
{6}
н/о н/о +16.6 +10.2 66 +16 +16 1008.9 1002.3
18 13.08 С 6
{7}
55 км 4/0
[Ac trans Ci sp]
+16.1 +10.6 70 +15 +15 1008.7 1002.0 +13.6 +17.7
19 13.08 С 6
{7}
н/о н/о +15.6 +10.4 71 +14 +14 1008.6 1001.9
20 13.08 С 5
{7}
н/о н/о +15.4 +10.6 73 +14 +14 1008.6 1001.9
21 13.08 С 4
{6}
40 км 3/0
[]
+15.3 +9.4 68 +14 +14 1008.7 1002.0
22 13.08 С 5
{6}
н/о н/о +15.2 +9.6 69 +14 +14 1008.6 1001.9
23 13.08 С 4
{6}
н/о н/о +15.1 +9.7 70 +14 +14 1008.6 1001.9
00 14.08 С 4
{7}
н/о н/о +15.1 +10.1 72 +14 +14 1008.8 1002.1
01 14.08 С 5
{6}
н/о н/о +15.1 +10.5 74 +14 +14 1008.5 1001.8
02 14.08 С 4
{5}
н/о н/о +15.4 +10.6 73 +14 +14 1008.3 1001.6
03 14.08 С 4
{5}
н/о н/о +15.4 +10.8 74 +14 +14 1008.4 1001.7
04 14.08
{5}
н/о н/о +15.4 +10.8 74 1008.4 1001.7
05 14.08 СВ 2
{5}
н/о н/о +15.1 +11.7 80 +15 +15 1008.5 1001.8
06 14.08 С 1
{6}
40 км 5/5 1500 м
[Sc Ci fib]
+15.3 +12.1 81 +16 +17 1008.6 1001.9 +15.0 +16.1
07 14.08 С 3
{4}
н/о н/о +16.7 +11.8 73 +16 +16 1008.6 1002.0
08 14.08 С 3
{4}
н/о н/о +17.3 +11.8 70 +17 +17 1008.8 1002.2
09 14.08 С 3
{4}
55 км 3/1 1000 м
[Cu hum Cs]
+17.5 +11.8 69 +18 +23 1009.1 1002.5
10 14.08 СЗ 3
{4}
н/о н/о +17.9 +10.8 63 +18 +18 1009.0 1002.4
11 14.08 СЗ 3
{5}
н/о н/о +18.0 +10.9 63 +18 +18 1009.3 1002.7
12 14.08 СЗ 3
{5}
40 км 9/0
[]
+17.8 +10.7 63 +18 +23 1009.3 1002.7
13 14.08 З 3
{5}
н/о н/о +17.9 +11.0 64 +18 +18 1009.6 1003.0
14 14.08 З 3
{5}
н/о н/о +17.6 +11.0 65 +18 +18 1009.5 1002.9
15 14.08 З 5
{6}
40 км 8/1 1000 м
[Cu hum Ac trans Cs]
+17.2 +11.9 71 +17 +18 1009.6 1003.0
16 14.08 З 4
{6}
н/о н/о +16.8 +11.5 71 +16 +16 1009.5 1002.9
17 14.08 З 4
{6}
н/о н/о +16.5 +11.4 72 +16 +16 1009.5 1002.8
18 14.08 ЮЗ 3
{6}
20 км 10/8 600 м
[Sc Ac As]
+16.2 +12.0 76 +16 +16 1009.4 1002.7 +15.3 +18.2
19 14.08 ЮЗ 3
{7}
н/о н/о +16.2 +12.2 77 +16 +16 1009.5 1002.8
20 14.08 Ю 5
{7}
н/о н/о +16.4 +12.2 76 +15 +15 1009.6 1002.9
21 14.08 Ю 6
{8}
20 км слабый дождь 10/9 600 м
[Sc]
+16.4 +13.0 80 +15 +15 1009.4 1002.7 0.1
22 14.08 Ю 5
{8}
н/о н/о +15.8 +14.0 89 +15 +15 1009.2 1002.5 0.1
23 14.08 ЮЗ 6
{7}
н/о н/о +16.1 +13.4 84 +15 +15 1009.0 1002.3
00 15.08 Ю 5
{10}
н/о н/о +15.8 +14.2 90 +15 +15 1008.9 1002.2
01 15.08 Ю 6
{7}
н/о н/о +16.1 +13.6 85 +15 +15 1008.6 1001.9
02 15.08 ЮЗ 7
{9}
н/о н/о +16.3 +13.8 85 +15 +15 1008.1 1001.5
03 15.08 ЮЗ 8
{11}
н/о н/о +16.2 +13.5 84 +15 +15 1008.2 1001.6
04 15.08 ЮЗ 7 н/о н/о +16.2 +13.7 85 +15 +15 1007.8 1001.2

 

Местоположение метеостанции Utsira Fyr (Норвегия): широта 59.31 долгота 4.88 высота над уровнем моря 55 м.

В архиве по умолчанию представлена погода в Utsira Fyr за последнюю неделю. Архивные данные за месяц целиком и за предыдущие месяцы, начиная с января 2011 года, Вы можете получить, выбрав интересующий диапазон дат из раскрывающегося списка и нажав кнопку "Ввод!".


*Определитесь, кто Вы:
робот инопланетянин человек

Внимание! Время в таблицах - всемирное. Для получения местного времени необходимо прибавить поправку, которая в Utsira Fyr равна 1 ч.

Смотрите также архив погоды в соседних городах и на ближайших метеорологических станциях:

Погода в Rovaer (Норвегия) (18 км)
Погода в Haugesund Lufthavn (Норвегия) (19 км)
Погода в Kvitsoy (Норвегия) (41 км)
Погода в Vats I Vindafjord (Норвегия) (52 км)
Погода в Stavanger (Норвегия) (62 км)
Погода в Stavanger Lufthavn (Норвегия) (65 км)
Погода в Fister-Sigmundstad (Норвегия) (67 км)
Погода в Slatteroy Fyr (Норвегия) (68 км)
Погода в Saerheim (Норвегия) (75 км)
Погода в Liarvatn (Норвегия) (76 км)

Пояснения к столбцам:

Ветер - указаны скорость ветра в м/с - средняя за 10 мин, порывы в срок и между сроками (в фигурных скобках) и направление, откуда дует ветер: С - северный, СВ - северо-восточный, В - восточный, ЮВ - юго-восточный, Ю - южный, ЮЗ - юго-западный, З - западный, СЗ - северо-западный.
Видимость - горизонтальная дальность видимости в метрах или километрах. При видимости от 1 до 10 км при отсутствии осадков обычно наблюдается дымка, при ухудшении видимости до 1 км и менее - туман. В сухую погоду видимость может ухудшаться дымом, пылью или мглою.
Явления - указаны атмосферные явления, наблюдавшиеся в срок или в последний час перед сроком; фигурными скобками обозначены явления, наблюдавшиеся между сроками (за 1-3 часа до срока); квадратными скобками обозначены град или гололедные отложения с указанием их диаметра в мм.
Облачность - указаны через наклонную черту общая и нижняя облачность в баллах и высота нижней границы облаков в метрах; квадратными скобками обозначены формы облаков: Ci - перистые, Cs - перисто-слоистые, Cc - перисто-кучевые, Ac - высококучевые, As - высокослоистые, Sc - слоисто-кучевые, Ns - слоисто-дождевые, Cu - кучевые, Cb - кучево-дождевые. Подробнее классификацию облаков см. в Атласе облаков (PDF).
T - Температура воздуха - температура, измеренная на высоте 2 м над землей.
Td - Температура точки росы - температура, при понижении до которой содержащийся в воздухе водяной пар достигнет насыщения.
f - Относительная влажность воздуха - влажноcть воздуха, измеренная на высоте 2 м над землей.
Te - Эффективная температура - температура, которую ощущает одетый по сезону человек в тени. Характеристика душности погоды. При расчете учитывается влияние влажности воздуха и скорости ветра на теплоощущения человека.
Tes - Эффективная температура на солнце - температура, которую ощущает человек, с поправкой на солнечный нагрев. Характеристика знойности погоды. Зависит от высоты солнца над горизонтом, облачности и скорости ветра. Ночью, в пасмурную погоду, а также при ветре 12 м/с и более поправка равна нулю.
P - Атмосферное давление - приведенное к уровню моря атмосферное давление.
Po - Атмосферное давление - измеренное на уровне метеостанции атмосферное давление.
Tmin - Минимальная температура - минимум температуры воздуха на высоте 2 м над землей.
Tmax - Максимальная температура - максимум температуры воздуха на высоте 2 м над землей.
R - Количество осадков - Количество выпавших осадков за период времени, мм. При наведении курсора мыши на число - период времени, за который выпало указанное количество осадков.
R24 - Количество осадков - Количество выпавших осадков за 24 часа, мм.
S - Снежный покров - Высота снежного покрова, см. При наведении курсора мыши на число - состояние снежного покрова и степень покрытия местности в баллах.